Regional Weather Roundup
Issued by NWS

Home | Current Version | Previous Version | Graphics & Text | Print | Product List | Glossary On
Versions: 1 2 3 4 5 6 7 8 9 10 11 12 13 14 15 16 17 18 19 20 21 22 23 24 25 26 27 28 29 30 31 32 33 34 35 36 37 38 39 40 41 42 43 44 45 46 47 48 49 50
000
ASUS43 KBIS 110210
RWRND

NORTH DAKOTA REGIONAL WEATHER ROUNDUP
NATIONAL WEATHER SERVICE BISMARCK ND
900 PM CDT THU JUL 10 2014

NOTE: "FAIR" INDICATES FEW OR NO CLOUDS BELOW 12,000 FEET WITH NO
SIGNIFICANT WEATHER AND/OR OBSTRUCTIONS TO VISIBILITY.


NDZ001>003-009>011-017-110300-
NORTHWEST NORTH DAKOTA

CITY           SKY/WX    TMP DP  RH WIND       PRES   REMARKS
WILLISTON      CLEAR     80  64  58 N20       29.76R
MINOT          CLEAR     77  65  66 S13       29.74S
MINOT AFB      CLEAR     75  69  80 S9        29.74R
$$

NDZ018>021-031>035-040>046-110300-
SOUTHWEST NORTH DAKOTA

CITY           SKY/WX    TMP DP  RH WIND       PRES   REMARKS
BISMARCK       CLEAR     75  68  78 SE5       29.79S
DICKINSON      CLEAR     76  66  71 SE9       29.78S
GARRISON         N/A     75  67  76 S8        29.77S
HETTINGER ARPT CLEAR     78  66  66 SE7       29.82S
$$

NDZ004>008-012>016-024-026-027-054-110300-
NORTHEAST NORTH DAKOTA

CITY           SKY/WX    TMP DP  RH WIND       PRES   REMARKS
GRAND FORKS    MOCLDY    76  64  66 S15       29.80S
GRND FRKS AFB  MOCLDY    76  67  75 S13       29.81R
DEVILS LAKE    CLEAR     73  63  68 S8        29.78S
$$

NDZ022-023-025-028>030-036>039-047>053-110300-
SOUTHEAST NORTH DAKOTA

CITY           SKY/WX    TMP DP  RH WIND       PRES   REMARKS
FARGO          CLOUDY    72  69  90 E7        29.83F
JAMESTOWN      PTCLDY    72  65  78 SE6       29.80F
$$



USA.gov is the U.S. government's official web portal to all federal, state and local government web resources and services.